Home > Weather > Zielona Góra > Past weeks

Flag for Poland Past Weather in Zielona Góra, Poland — Yesterday and Last 2 Weeks

Now
66 °F

Sunny.


Feels Like: 66 °F
Forecast: 61 / 84 °F
Wind: 3 mph from Southeast

Location: Zielona Gora

Current Time: Aug 25, 2016 at 10:14:48 AM

Latest Report: Aug 25, 2016 at 9:00 AM


Visibility: 13 mi

Pressure: 30.27 "Hg

Humidity: 71%

Dew Point: 56 °F

Location of Zielona GóraLocation

Past Weather in Zielona Góra — Graph

°F

Zielona Góra Temperature Yesterday

Maximum temperature yesterday: 74 °F (at 5:00 PM)
Minimum temperature yesterday: 59 °F (at 6:00 AM)
Average temperature yesterday: 67 °F

High & Low Weather Summary for the Past Weeks

 TemperatureHumidityPressure
High78 °F (Aug 20, 4:00 PM)100% (Aug 13, 3:00 AM)30.35 "Hg (Aug 13, 3:00 AM)
Low47 °F (Aug 11, 6:00 AM)35% (Aug 19, 5:00 PM)29.82 "Hg (Aug 18, 1:00 PM)
Average62 °F72%30.11 "Hg
* Reported Aug 10 8:00 AM — Aug 25 8:00 AM, Zielona Góra, Weather by CustomWeather, © 2016

Note: Actual official high and low records may vary slightly from our data, if they occured in-between our weather recording intervals... More about our weather records

Advertising

Zielona Góra Weather History for the Previous 24 Hours

Scroll right to see more
 ConditionsComfort  
Time TempWeatherWind HumidityBarometerVisibility
8:00 AM
Thu, Aug 25
62 °FSunny.3 mph78%30.27 "Hg9 mi
7:00 AM58 °FFog.3 mph85%30.27 "Hg7 mi
6:00 AM58 °FSunny.3 mph85%30.27 "Hg16 mi
5:00 AM59 °FClear.3 mph82%30.28 "Hg19 mi
4:00 AM60 °FClear.3 mph82%30.28 "Hg22 mi
3:00 AM60 °FClear.3 mph79%30.29 "Hg25 mi
2:00 AM61 °FClear.3 mph77%30.30 "Hg28 mi
1:00 AM62 °FClear.3 mph76%30.29 "Hg31 mi
12:00 AM64 °FClear.1 mph73%30.29 "Hg31 mi
11:00 PM
Wed, Aug 24
64 °FClear.1 mph74%30.29 "Hg31 mi
10:00 PM66 °FClear.1 mph72%30.29 "Hg31 mi
9:00 PM67 °FPassing clouds.1 mph69%30.29 "Hg31 mi
8:00 PM69 °FPassing clouds.1 mph68%30.29 "Hg31 mi
7:00 PM72 °FPassing clouds.2 mph61%30.28 "Hg31 mi
6:00 PM74 °FPassing clouds.1 mph57%30.29 "Hg31 mi
5:00 PM74 °FPassing clouds.2 mph54%30.29 "Hg31 mi
4:00 PM74 °FPassing clouds.2 mph55%30.30 "Hg28 mi
3:00 PM73 °FPassing clouds.2 mph55%30.31 "Hg28 mi
2:00 PM73 °FScattered clouds.2 mph57%30.32 "Hg28 mi
1:00 PM70 °FPartly sunny.2 mph63%30.33 "Hg28 mi
12:00 PM70 °FPartly sunny.2 mph63%30.34 "Hg28 mi
11:00 AM69 °FPassing clouds.1 mph65%30.35 "Hg25 mi
10:00 AM68 °FPassing clouds.1 mph74%30.35 "Hg12 mi
Weather by CustomWeather, © 2016

See weather overviewHow to use our weather pages